Lid_Strength_Index
5 5 5 5 5 6 6 6 9 2 2 7 7 9 7 7 7 5 6 6 6 8 8 8 7 8 6 4 5 7 6 7 10 8 6 5 6 7 8 11 12 10 12 12
6 6 5 5 5 6 8 8 7 3 3 9 8 7 7 6 7 7 7 7 6 5 8 9 7 7 5 5 5 6 6 9 11 10 8 6 7 7 7 8 9 12 14 12
6 6 6 5 5 6 7 8 10 6 5 6 8 8 8 7 5 6 6 6 6 6 7 7 8 8 5 4 5 4 5 8 10 13 10 8 9 8 7 8 11 11 11 9
6 6 6 6 5 5 7 8 9 7 9 8 7 6 7 8 8 5 5 6 7 7 8 7 9 7 6 5 6 5 5 10 8 8 8 7 8 8 8 8 8 11 9 9
6 6 5 6 5 5 8 9 8 6 7 6 7 8 8 8 7 6 7 7 7 6 8 7 8 7 6 7 5 6 6 10 8 9 7 7 8 8 7 8 7 8 8 9
6 6 6 5 5 5 7 5 5 6 8 7 8 8 7 7 6 5 5 5 6 7 6 4 4 4 5 6 7 7 8 9 10 12 8 8 10 8 7 7 7 7 9 9
6 6 5 5 4 4 6 6 5 7 9 7 7 6 6 7 6 8 7 5 7 4 3 3 4 4 6 5 6 6 8 9 9 12 10 15 8 6 6 7 6 6 7 6
6 5 5 5 4 3 4 4 5 6 9 7 6 6 6 6 6 7 7 5 4 3 4 7 9 8 8 7 6 7 6 9 11 13 12 10 8 7 7 7 8 5 6 6
5 5 5 4 3 2 3 4 3 6 8 7 5 6 6 8 9 9 7 4 3 4 6 8 12 12 9 10 9 7 8 9 10 11 14 15 9 7 6 5 10 5 5 6
5 5 4 3 2 2 3 4 -0 4 7 5 5 7 7 6 7 9 7 7 7 5 8 10 11 11 8 11 12 11 12 13 13 12 13 11 8 7 6 12 10 5 5 5
4 3 3 2 2 2 3 4 1 3 6 5 4 4 7 8 7 10 7 8 7 8 9 9 9 9 8 9 8 10 12 15 13 11 14 15 6 7 11 7 4 5 5 5
4 3 2 2 2 2 2 5 1 0 4 5 3 3 4 6 6 8 7 8 8 7 9 7 8 10 8 9 12 7 12 10 11 9 9 8 6 6 4 4 5 4 5 4
3 3 3 2 2 2 2 4 1 3 5 5 5 5 3 3 4 4 9 7 5 6 5 8 9 11 10 13 10 9 7 6 9 8 7 6 6 5 5 5 4 3 3 4
3 3 3 2 2 2 2 4 3 2 5 8 5 1 3 3 3 4 5 5 4 4 5 7 8 11 8 11 10 10 8 7 8 8 7 6 5 5 4 4 3 3 3 3
2 2 2 1 1 1 1 2 2 2 5 8 7 4 2 1 3 4 4 4 5 6 7 8 9 7 8 8 9 11 8 10 9 10 6 7 7 5 4 4 4 3 3 3
1 1 1 1 1 1 2 4 1 1 2 6 9 2 3 2 3 5 4 5 5 5 6 7 6 6 8 10 12 8 7 6 6 8 6 5 6 4 3 3 3 3 3 3
1 1 0 0 0 0 3 4 2 1 1 6 8 7 3 2 2 4 5 3 5 6 6 7 7 7 7 8 12 8 7 6 5 5 6 6 4 5 3 3 3 3 2 2
1 1 0 -0 -0 0 2 0 0 1 2 3 8 7 6 2 5 6 3 5 5 5 6 5 7 6 6 9 7 6 6 5 5 5 5 4 4 3 3 3 3 3 4 3
0 1 0 1 1 3 1 -1 -1 0 2 8 7 8 10 3 5 4 4 4 8 5 7 7 6 8 10 8 7 6 6 5 5 4 4 4 4 4 4 3 4 4 4 3
0 1 3 5 1 -1 -0 2 3 4 4 4 7 5 8 5 5 6 6 5 7 9 7 5 8 8 6 5 5 5 4 4 3 5 5 4 5 5 5 4 4 4 4 3
1 4 4 1 -0 1 4 7 7 6 8 5 5 5 7 3 7 8 5 8 6 10 8 8 9 9 7 5 5 3 3 3 3 3 3 3 3 4 4 4 3 3 3 3
1 2 0 1 4 6 9 9 7 8 9 5 6 5 5 5 3 7 6 9 8 10 5 8 10 7 6 5 4 3 3 3 3 3 3 3 3 2 3 3 3 3 3 2
1 3 5 6 6 11 10 11 9 8 5 5 5 6 5 4 4 6 7 10 10 6 9 9 7 5 4 4 4 3 3 3 3 3 2 2 2 2 2 3 2 2 2 3
5 7 10 9 9 8 7 8 9 5 5 5 5 6 6 5 7 6 10 7 7 11 12 10 8 6 5 4 3 3 4 3 3 3 4 4 4 2 2 2 2 3 3 2
6 6 10 8 6 5 5 6 5 4 3 5 6 6 6 7 8 7 9 11 13 10 10 8 6 5 4 4 4 4 3 3 3 3 4 4 4 3 3 2 1 2 2 3
5 5 7 6 7 7 6 5 6 3 4 4 6 9 9 9 8 10 12 11 13 10 8 6 5 4 4 4 3 3 3 3 3 2 2 2 3 2 2 1 1 2 2 3
6 6 4 5 6 6 6 4 5 2 5 8 7 10 10 7 10 11 9 11 10 7 6 5 5 5 4 3 3 3 3 3 3 3 3 2 2 2 2 2 2 2 1 2